Location: Buisson
(44.2787°N, 4.9969°E)
Time: 07:22:41
(UTC+00:00)

Cosmos 2084 - Pass Details

Date: 18 April 2021
Orbit: 546 x 635 km, 62.8° (Epoch: 05 May)

Event Time Altitude Azimuth Distance (km) Brightness Sun altitude
Exits shadow 02:44:26 36° 162° (SSE) 896 4.1 -20.8°
Maximum altitude 02:45:31 45° 122° (ESE) 776 4.1 -20.6°
Drops below altitude 10° 02:49:33 10° 49° (NE) 1,883 7.3 -20.1°
Sets 02:51:53 0° 43° (NE) 2,801 8.5 -19.7°
